Davenport, IA

10:35 PM CDT on August 30, 2016 (GMT -0500)
Davenport Municipal

Weather History for KDVN - September, 2011

Change the Weather History Date:

Monday, September 26, 2011

  Actual Average Record
Temperature  
Mean Temperature 51 °F 59 °F  
Max Temperature 57 °F 71 °F 87 °F (1998)
Min Temperature 44 °F 47 °F 35 °F (2001)
Degree Days  
Heating Degree Days 14 7  
Month to date heating degree days 165 89  
Since 1 July heating degree days 165 103  
Cooling Degree Days 0 1  
Month to date cooling degree days 57 64  
Year to date cooling degree days 1003 768  
Moisture  
Dew Point 48 °F    
Average Humidity 85    
Maximum Humidity 93    
Minimum Humidity 77    
Precipitation  
Precipitation 1.38 in 0.12 in 2.60 in (1959)
Month to date precipitation 2.42 2.67  
Year to date precipitation 26.32 28.49  
Snow  
Snow 0.00 in - - ()
Month to date snowfall 0.0  
Since 1 July snowfall 0.0  
Since 1 September snowfall 0.0  
Snow Depth 0.00 in    
Sea Level Pressure  
Sea Level Pressure 29.65 in    
Wind  
Wind Speed 14 mph (NW)    
Max Wind Speed 26 mph    
Max Gust Speed 38 mph    
Visibility 3 miles    
Events Fog , Rain    
T = Trace of Precipitation, MM = Missing Value Source: NWS Daily Summary

Daily Weather History Graph

Daily Weather History Graph

Search for Another Location

Airport or City:

Trip Planner

Search our weather history database for the weather conditions in past years. The results will help you decide how hot, cold, wet, or windy it might be!

Date:

Astronomy

Sep. 26, 2011 Rise Set
Actual Time 6:53 AM CDT 6:53 PM CDT
Civil Twilight 6:26 AM CDT 7:20 PM CDT
Nautical Twilight 5:53 AM CDT 7:52 PM CDT
Astronomical Twilight 5:20 AM CDT 8:25 PM CDT
Moon 5:53 AM CDT (9/26) 6:07 PM CDT (9/26)
Length of Visible Light 12h 54m
Length of Day
11h 59m
Waning Crescent, 1% of the Moon is Illuminated
Sep 26
Waning Crescent
Sep 27
New
Oct 3
First Quarter
Oct 11
Full
Oct 19
Last Quarter

Hourly Weather History & Observations

Time (CDT) Temp. Windchill Dew Point Humidity Pressure Visibility Wind Dir Wind Speed Gust Speed Precip Events Conditions
12:01 AM 39.2 °F 35.9 °F 37.4 °F 93% 29.81 in 0.2 mi NNE 4.6 mph - N/A Fog Fog
12:20 AM 42.8 °F 39.3 °F 39.2 °F 87% 29.81 in 0.2 mi NNE 5.8 mph - N/A Fog Fog
12:26 AM 44.6 °F 41.4 °F 42.8 °F 93% 29.81 in 1.2 mi NNE 5.8 mph - N/A   Overcast
12:32 AM 46.4 °F 44.3 °F 44.6 °F 93% 29.81 in 3.0 mi NE 4.6 mph - N/A   Overcast
12:52 AM 46.9 °F - 45.0 °F 93% 29.81 in 4.0 mi NNW 3.5 mph - N/A   Mostly Cloudy
1:01 AM 44.6 °F 41.4 °F 42.8 °F 93% 29.80 in 2.5 mi WNW 5.8 mph - N/A   Scattered Clouds
1:15 AM 46.4 °F 42.4 °F 44.6 °F 93% 29.79 in 4.0 mi NNW 8.1 mph - N/A   Clear
1:39 AM 44.6 °F 41.4 °F 42.8 °F 93% 29.78 in 2.5 mi NNW 5.8 mph - N/A   Clear
1:48 AM 44.6 °F 41.4 °F 42.8 °F 93% 29.78 in 4.0 mi NW 5.8 mph - N/A   Clear
1:52 AM 45.0 °F 41.2 °F 43.0 °F 93% 29.79 in 4.0 mi NNW 6.9 mph - N/A   Clear
2:21 AM 44.6 °F 41.4 °F 42.8 °F 93% 29.77 in 2.5 mi NW 5.8 mph - N/A   Partly Cloudy
2:33 AM 44.6 °F 41.4 °F 42.8 °F 93% 29.78 in 2.0 mi NNW 5.8 mph - N/A   Mostly Cloudy
2:39 AM 46.4 °F 45.2 °F 42.8 °F 87% 29.78 in 1.0 mi NNW 3.5 mph - N/A   Mist
2:45 AM 46.4 °F 44.3 °F 44.6 °F 93% 29.77 in 0.2 mi NNW 4.6 mph - N/A Fog Fog
2:52 AM 46.0 °F 43.9 °F 44.1 °F 93% 29.78 in 0.2 mi NNW 4.6 mph - N/A Fog Fog
3:21 AM 46.4 °F 42.9 °F 44.6 °F 93% 29.74 in 0.2 mi NW 6.9 mph - N/A Fog Fog
3:35 AM 48.2 °F - 44.6 °F 87% 29.73 in 0.5 mi NW 5.8 mph - N/A Fog Fog
3:42 AM 48.2 °F - 46.4 °F 93% 29.74 in 0.2 mi NW 6.9 mph - N/A Fog Fog
4:20 AM 48.2 °F - 46.4 °F 93% 29.73 in 0.8 mi NNW 5.8 mph - N/A   Mist
4:28 AM 48.2 °F - 46.4 °F 93% 29.73 in 0.5 mi North 9.2 mph - N/A Fog Fog
4:52 AM 46.9 °F - 45.0 °F 93% 29.74 in 0.8 mi NNW 10.4 mph - N/A   Mist
6:09 AM 48.2 °F - 46.4 °F 93% 29.72 in 1.2 mi NW 9.2 mph - N/A   Overcast
6:33 AM 50.0 °F - 46.4 °F 87% 29.72 in 2.0 mi NW 8.1 mph - 0.01 in   Overcast
6:52 AM 50.0 °F - 48.0 °F 93% 29.72 in 1.5 mi WNW 8.1 mph - 0.01 in   Overcast
7:14 AM 50.0 °F - 48.2 °F 94% 29.72 in 2.0 mi WNW 8.1 mph - 0.00 in Rain Light Rain
7:38 AM 50.0 °F - 48.2 °F 94% 29.70 in 1.5 mi WNW 6.9 mph - 0.03 in Rain Light Rain
7:52 AM 51.1 °F - 48.0 °F 89% 29.72 in 1.5 mi WNW 11.5 mph - 0.04 in Rain Light Rain
8:52 AM 52.0 °F - 48.9 °F 89% 29.68 in 1.8 mi West 13.8 mph 18.4 mph 0.04 in Rain Light Rain
9:18 AM 51.8 °F - 48.2 °F 88% 29.67 in 2.0 mi West 15.0 mph - 0.03 in Rain Rain
9:48 AM 51.8 °F - 48.2 °F 88% 29.66 in 1.5 mi West 15.0 mph 21.9 mph 0.08 in Rain Rain
10:45 AM 51.8 °F - 48.2 °F 88% 29.62 in 2.5 mi WSW 13.8 mph 23.0 mph 0.18 in Rain Light Rain
10:52 AM 52.0 °F - 48.9 °F 89% 29.62 in 3.0 mi WSW 16.1 mph 23.0 mph 0.19 in Rain Light Rain
10:55 AM 51.8 °F - 48.2 °F 88% 29.61 in 2.5 mi WSW 16.1 mph 23.0 mph 0.01 in Rain Rain
11:09 AM 51.8 °F - 48.2 °F 88% 29.60 in 2.0 mi WSW 17.3 mph 26.5 mph 0.05 in Rain Rain
11:36 AM 53.6 °F - 48.2 °F 82% 29.59 in 4.0 mi WSW 21.9 mph 29.9 mph 0.07 in Rain Light Rain
11:41 AM 53.6 °F - 48.2 °F 82% 29.60 in 2.5 mi WSW 23.0 mph 31.1 mph 0.08 in Rain Light Rain
11:48 AM 53.6 °F - 48.2 °F 82% 29.58 in 1.2 mi WSW 20.7 mph 31.1 mph 0.10 in Rain Rain
11:52 AM 53.1 °F - 48.9 °F 86% 29.58 in 1.0 mi WSW 19.6 mph 31.1 mph 0.12 in Rain Heavy Rain
12:52 PM 53.1 °F - 50.0 °F 89% 29.55 in 1.8 mi WSW 24.2 mph 33.4 mph 0.17 in Rain Rain
1:36 PM 53.6 °F - 51.8 °F 94% 29.54 in 3.0 mi West 19.6 mph 32.2 mph 0.08 in Rain Light Rain
1:52 PM 54.0 °F - 51.1 °F 90% 29.54 in 2.5 mi West 17.3 mph 32.2 mph 0.09 in Rain Light Rain
2:03 PM 53.6 °F - 51.8 °F 94% 29.51 in 1.5 mi West 16.1 mph 28.8 mph 0.00 in Rain Light Rain
2:52 PM 55.0 °F - 52.0 °F 89% 29.50 in 1.0 mi West 21.9 mph 27.6 mph 0.13 in Rain Heavy Rain
3:40 PM 55.4 °F - 53.6 °F 94% 29.49 in 2.5 mi West 23.0 mph 32.2 mph 0.14 in Rain Light Rain
3:47 PM 55.4 °F - 53.6 °F 94% 29.50 in 3.0 mi West 20.7 mph 32.2 mph 0.15 in Rain Light Rain
4:04 PM 55.4 °F - 53.6 °F 94% 29.49 in 1.8 mi West 19.6 mph 31.1 mph 0.04 in Rain Heavy Rain
4:23 PM 55.4 °F - 53.6 °F 94% 29.49 in 3.0 mi West 13.8 mph 25.3 mph 0.10 in Rain Light Rain
4:52 PM 57.0 °F - 54.0 °F 89% 29.51 in 4.0 mi WNW 10.4 mph 18.4 mph 0.11 in Rain Rain
4:59 PM 57.2 °F - 53.6 °F 88% 29.52 in 2.5 mi WNW 11.5 mph 20.7 mph 0.03 in Rain Rain
5:12 PM 57.2 °F - 53.6 °F 88% 29.51 in 10.0 mi WNW 10.4 mph - 0.03 in   Mostly Cloudy
5:52 PM 57.0 °F - 52.0 °F 83% 29.54 in 10.0 mi WNW 11.5 mph 19.6 mph 0.03 in   Overcast
6:52 PM 55.0 °F - 48.9 °F 80% 29.54 in 10.0 mi NW 10.4 mph - N/A   Mostly Cloudy
7:21 PM 53.6 °F - 48.2 °F 82% 29.54 in 7.0 mi WNW 15.0 mph 23.0 mph 0.01 in Rain Light Rain
7:52 PM 53.1 °F - 48.0 °F 83% 29.54 in 4.0 mi WNW 13.8 mph 26.5 mph 0.07 in Rain Light Rain
8:07 PM 53.6 °F - 48.2 °F 82% 29.54 in 3.0 mi NW 18.4 mph 25.3 mph 0.01 in Rain Light Rain
8:26 PM 51.8 °F - 48.2 °F 88% 29.54 in 4.0 mi NW 13.8 mph 24.2 mph 0.02 in Rain Light Rain
8:52 PM 53.1 °F - 48.9 °F 86% 29.56 in 4.0 mi NNW 15.0 mph 21.9 mph 0.04 in Rain Light Rain
9:25 PM 53.6 °F - 50.0 °F 88% 29.57 in 1.8 mi North 15.0 mph 21.9 mph 0.03 in Rain Rain
9:38 PM 53.6 °F - 50.0 °F 88% 29.58 in 2.5 mi North 19.6 mph 23.0 mph 0.05 in Rain Light Rain
9:52 PM 53.1 °F - 50.0 °F 89% 29.58 in 10.0 mi North 16.1 mph 23.0 mph 0.05 in   Overcast
10:52 PM 52.0 °F - 48.9 °F 89% 29.61 in 5.0 mi North 16.1 mph 21.9 mph 0.01 in Rain Light Rain
11:17 PM 51.8 °F - 48.2 °F 88% 29.61 in 2.5 mi North 19.6 mph 23.0 mph 0.02 in Rain Light Rain
11:26 PM 51.8 °F - 48.2 °F 88% 29.62 in 4.0 mi North 16.1 mph - 0.02 in Rain Light Rain
11:52 PM 52.0 °F - 48.9 °F 89% 29.63 in 9.0 mi North 12.7 mph 23.0 mph 0.02 in Rain Light Rain